[[{"header":{"parameterUnit":"m.s-1","parameterCategory":1,"la1":30.2991,"la2":30.254,"lo1":-89.0895,"lo2":-89.0444,"dy":0.0017,"dx":0.0017,"nx":28,"ny":28,"refTime":"2025-12-28T03:00:00:Z","depth":0,"parameterNumber":2,"parameterNumberName":"U-component_of_WINDS"},"data":[0,0,0,0,0,0,0,0,0,0,0,0,0,0,0,0,0,0,0,0,0,0,0,0,0,0,0,0,0,0,0,0,0,0,0,0,0,0,0,0,0,0,0,0,0,0,0,0,0,0,0,0,0,0,0,0,0,0,2.3986,2.3986,0,2.3993,2.3993,2.3994,2.3968,2.3967,2.3966,2.3965,2.3972,2.3972,2.3973,0,0,0,0,0,0,0,0,0,0,0,0,0,2.395,2.3951,2.3986,2.3986,2.3986,2.3993,2.3993,2.3994,2.3968,2.3967,2.3966,2.3965,2.3971,2.3972,2.3973,0,0,0,0,0,0,0,0,0,0,0,0,0,2.3963,2.3951,2.3986,2.3974,2.3973,2.3993,2.3993,2.3994,2.3968,2.3967,2.3966,2.3965,2.3971,2.3972,2.3973,2.4005,0,0,2.3978,2.3978,0,0,0,0,0,0,0,0,2.3962,2.3964,2.3976,2.3975,2.3974,2.3978,2.3983,2.3997,2.3968,2.397,2.3965,2.3964,2.3975,2.3976,2.3979,2.4005,2.4005,2.3978,2.3978,2.3979,2.3979,0,0,0,0,0,0,0,2.3961,2.3963,2.3989,2.3976,2.3975,2.3969,2.3969,2.3986,2.3979,2.397,2.3968,2.3969,2.3974,2.3978,2.3979,2.4005,2.3978,2.3979,2.398,2.398,2.4058,2.406,0,0,0,0,0,0,2.3962,2.3963,2.3989,2.3989,2.3965,2.397,2.3971,2.3978,2.3978,2.3977,2.397,2.3968,2.3977,2.3978,2.398,2.4017,2.3979,2.398,2.3981,2.4057,2.4059,2.406,0,0,0,0,0,0,2.3961,2.3964,2.3988,2.3976,2.3978,2.3972,2.3981,2.3979,2.3983,2.3979,2.3977,2.3976,2.3976,2.3978,2.3999,2.4016,2.3981,2.3982,2.4056,2.4058,2.4059,2.4091,0,0,0,0,0,0,2.396,2.3964,2.3976,2.3976,2.3979,2.4008,2.3982,2.398,2.3986,2.3983,2.3984,2.3983,2.3975,2.3997,2.4,2.4018,2.3983,2.4054,2.4057,2.4059,2.4088,2.4094,2.4098,0,0,0,0,0,2.3959,2.3984,2.3977,2.398,2.3993,2.4009,2.4011,2.4001,2.3987,2.3999,2.3996,2.3983,2.4014,2.4,2.4003,2.4021,2.4053,2.4056,2.4059,2.4086,2.4093,2.4098,0,0,0,0,0,0,2.3985,2.3984,2.3975,2.4001,2.4006,2.4004,2.4019,2.4009,2.4016,2.4013,2.4002,2.4002,2.4026,2.4026,2.4009,2.4052,2.4031,2.4035,2.4051,2.4057,2.4062,2.4061,2.3984,0,0,0,0,0,2.3994,2.4007,2.4005,2.4028,2.403,2.4025,2.4031,2.4024,2.4027,2.4029,2.4028,2.4032,2.4043,2.405,2.406,2.4089,2.4089,2.4103,2.4108,2.4112,2.4115,2.4131,2.4137,2.407,2.407,2.407,0,0,2.4011,2.4013,2.4021,2.4033,2.4035,2.4049,2.4026,2.4041,2.4051,2.4031,2.4051,2.4051,2.4055,2.408,2.4091,2.4081,2.4134,2.4116,2.4119,2.412,2.4135,2.4141,2.4147,2.4072,2.4071,2.4071,0,0,2.4051,2.4053,2.4073,2.4077,2.4081,2.4077,2.4082,2.4084,2.4083,2.4103,2.4089,2.4101,2.412,2.4123,2.4128,2.4172,2.4159,2.4175,2.4201,2.4217,2.4222,2.4226,2.4242,2.4248,2.4178,2.4178,2.4179,0,2.4072,2.4093,2.4084,2.4101,2.4107,2.4091,2.4111,2.4114,2.4122,2.4126,2.4115,2.4139,2.4141,2.4167,2.4178,2.4182,2.4187,2.4174,2.4222,2.4226,2.4231,2.4245,2.4251,2.418,2.418,2.418,2.418,0,2.4119,2.4134,2.4149,2.4158,2.4165,2.4184,2.4178,2.4187,2.418,2.4178,2.42,2.4201,2.4211,2.4217,2.421,2.4243,2.4237,2.4224,2.4203,2.4239,2.4253,2.4258,2.4183,2.4182,2.4182,2.4181,0,0,2.4172,2.4178,2.4184,2.4188,2.4193,2.4204,2.4223,2.4233,2.4241,2.4248,2.4263,2.428,2.4269,2.4274,2.4268,2.4282,2.4317,2.4267,2.4267,2.4276,2.4353,2.4363,2.4369,2.4309,2.431,2.4311,2.4353,0,2.4211,2.4243,2.4237,2.4267,2.4281,2.4267,2.4283,2.4288,2.4287,2.4299,2.4298,2.431,2.4294,2.4297,2.4311,2.4309,2.4332,2.4306,2.4323,2.4323,2.4321,2.4376,2.4386,2.4425,2.4358,2.4359,2.436,0,2.426,2.4269,2.4302,2.4306,2.4312,2.4326,2.4337,2.4348,2.4354,2.4352,2.4359,2.435,2.4369,2.4349,2.4374,2.4357,2.4364,2.4364,2.4366,2.4366,2.4343,2.4377,2.4437,2.4443,2.4368,2.4368,2.4367,0,2.4295,2.4316,2.4339,2.4343,2.4349,2.4359,2.4362,2.4367,2.4375,2.4384,2.4389,2.44,2.4406,2.4415,2.441,2.4395,2.4436,2.4415,2.4435,2.4435,2.4443,2.4442,2.4504,2.4449,2.4449,2.4448,2.4448,0,2.4339,2.4359,2.4355,2.4369,2.4391,2.4385,2.4407,2.4409,2.4414,2.4427,2.4417,2.443,2.4422,2.4435,2.4431,2.4453,2.4456,2.4455,2.4454,2.4455,2.4456,2.4459,2.4455,2.445,2.445,2.4449,2.4449,0,2.4381,2.438,2.4403,2.4408,2.4409,2.4426,2.443,2.4443,2.4442,2.446,2.4463,2.4462,2.4476,2.4473,2.4488,2.4486,2.4513,2.4509,2.4511,2.451,2.453,2.4528,2.4595,2.4603,2.4543,2.4544,2.4544,0,2.4408,2.4424,2.4431,2.444,2.4444,2.4458,2.4466,2.4462,2.447,2.448,2.4492,2.4506,2.4516,2.454,2.454,2.4553,2.4548,2.4571,2.4549,2.4551,2.4548,2.4546,2.4548,2.4574,2.4575,2.4575,2.4576,0,2.4457,2.4456,2.4468,2.4481,2.4492,2.4501,2.451,2.4517,2.4513,2.4524,2.454,2.4548,2.4565,2.4579,2.4591,2.4593,2.4584,2.4583,2.4588,2.459,2.459,2.459,2.4522,2.4581,2.4581,2.458,2.458,2.458,2.4492,2.4505,2.4513,2.4528,2.4534,2.4543,2.4556,2.4558,2.4571,2.4584,2.4581,2.4599,2.4606,2.462,2.4625,2.4639,2.463,2.4637,2.4639,2.4641,2.4643,2.4589,2.4641,2.4641,2.4641,2.464,2.464,0,2.4539,2.4544,2.4558,2.4571,2.4583,2.4575,2.4585,2.4595,2.4611,2.4619,2.463,2.4648,2.4663,2.4665,2.4678,2.4689,2.4685,2.4692,2.4691,2.4692,2.465,2.4644,2.4695,2.4695,2.4695,2.4695,2.4695,2.4695,2.4565,2.4588,2.4589,2.4615,2.462,2.4637,2.4644,2.4652,2.4658,2.468,2.4692,2.4694,2.4699,2.4713,2.4726,2.4727,2.4732,2.4741,2.4739,2.47,2.4695,2.4689,2.4684,2.4742,2.4742,2.478,2.478,2.478]},{"header":{"parameterUnit":"m.s-1","parameterCategory":1,"la1":30.2991,"la2":30.254,"lo1":-89.0895,"lo2":-89.0444,"dy":0.0017,"dx":0.0017,"nx":28,"ny":28,"refTime":"2025-12-28T03:00:00:Z","depth":0,"parameterNumber":3,"parameterNumberName":"V-component_of_WINDS"},"data":[0,0,0,0,0,0,0,0,0,0,0,0,0,0,0,0,0,0,0,0,0,0,0,0,0,0,0,0,0,0,0,0,0,0,0,0,0,0,0,0,0,0,0,0,0,0,0,0,0,0,0,0,0,0,0,0,0,0,-8.5185,-8.5187,0,-8.5357,-8.5359,-8.5361,-8.5299,-8.5295,-8.5292,-8.5288,-8.5458,-8.5465,-8.5473,0,0,0,0,0,0,0,0,0,0,0,0,0,-8.4799,-8.4806,-8.5185,-8.5187,-8.519,-8.5357,-8.5359,-8.5361,-8.53,-8.5295,-8.5291,-8.5286,-8.5455,-8.5464,-8.5474,0,0,0,0,0,0,0,0,0,0,0,0,0,-8.4968,-8.4809,-8.5185,-8.5179,-8.518,-8.5356,-8.5359,-8.5362,-8.5301,-8.5295,-8.5289,-8.5284,-8.5452,-8.5464,-8.5476,-8.5665,0,0,-8.5513,-8.5518,0,0,0,0,0,0,0,0,-8.4959,-8.4982,-8.5178,-8.518,-8.5182,-8.5301,-8.5285,-8.5464,-8.5302,-8.5255,-8.5288,-8.5281,-8.541,-8.5425,-8.547,-8.5673,-8.5681,-8.5514,-8.5521,-8.5526,-8.553,0,0,0,0,0,0,0,-8.4947,-8.4975,-8.5253,-8.5181,-8.5183,-8.5166,-8.5184,-8.5318,-8.5362,-8.5259,-8.5255,-8.5276,-8.541,-8.5458,-8.5473,-8.5683,-8.5513,-8.5524,-8.5532,-8.5536,-8.6051,-8.6057,0,0,0,0,0,0,-8.4935,-8.4965,-8.5247,-8.5258,-8.5054,-8.5178,-8.5198,-8.5268,-8.5361,-8.5369,-8.5281,-8.5273,-8.544,-8.5459,-8.5479,-8.5708,-8.5526,-8.5537,-8.5544,-8.6045,-8.6053,-8.606,0,0,0,0,0,0,-8.4927,-8.4961,-8.5241,-8.5111,-8.5145,-8.5191,-8.5271,-8.5275,-8.5323,-8.5378,-8.5384,-8.5323,-8.5436,-8.5462,-8.562,-8.5713,-8.5543,-8.5554,-8.6037,-8.6047,-8.6056,-8.6168,0,0,0,0,0,0,-8.4916,-8.4958,-8.5032,-8.5113,-8.5152,-8.5381,-8.5276,-8.5282,-8.5345,-8.5336,-8.5419,-8.5427,-8.5434,-8.5602,-8.5632,-8.5727,-8.5563,-8.6029,-8.6042,-8.6053,-8.6156,-8.618,-8.62,0,0,0,0,0,-8.4903,-8.5055,-8.5036,-8.5071,-8.5246,-8.5387,-8.5409,-8.5416,-8.5353,-8.5427,-8.5462,-8.5424,-8.5698,-8.5619,-8.5652,-8.5752,-8.6023,-8.6038,-8.6052,-8.6146,-8.6175,-8.62,0,0,0,0,0,0,-8.4982,-8.5066,-8.5046,-8.5229,-8.5302,-8.5376,-8.547,-8.5446,-8.5536,-8.5524,-8.5526,-8.5545,-8.5709,-8.5745,-8.5656,-8.594,-8.5851,-8.5873,-8.5911,-8.5939,-8.5961,-8.5949,-8.5574,0,0,0,0,0,-8.5022,-8.5131,-8.5197,-8.5352,-8.539,-8.5424,-8.5485,-8.5484,-8.5558,-8.5588,-8.5634,-8.5706,-8.5808,-8.5875,-8.5972,-8.616,-8.6177,-8.6245,-8.6267,-8.6285,-8.6304,-8.6407,-8.6438,-8.6107,-8.6107,-8.6107,0,0,-8.5103,-8.5162,-8.523,-8.537,-8.5426,-8.5537,-8.545,-8.5571,-8.5654,-8.5606,-8.5759,-8.5796,-8.5875,-8.605,-8.6129,-8.6086,-8.6399,-8.6303,-8.6317,-8.6327,-8.6425,-8.6456,-8.6484,-8.6117,-8.6115,-8.6113,0,0,-8.5309,-8.5365,-8.5501,-8.556,-8.5646,-8.5668,-8.5701,-8.5779,-8.5802,-8.5957,-8.5923,-8.602,-8.6196,-8.6254,-8.6307,-8.6536,-8.6505,-8.6567,-8.6684,-8.6784,-8.681,-8.6833,-8.6916,-8.6945,-8.6586,-8.6586,-8.6586,0,-8.5399,-8.5568,-8.5574,-8.5699,-8.5761,-8.5725,-8.5863,-8.5918,-8.6031,-8.6074,-8.6024,-8.6245,-8.6296,-8.6484,-8.654,-8.6584,-8.6621,-8.6558,-8.6806,-8.683,-8.6851,-8.693,-8.6961,-8.6593,-8.6592,-8.6592,-8.6591,0,-8.5675,-8.5792,-8.5892,-8.6005,-8.6077,-8.6208,-8.6232,-8.6305,-8.6298,-8.6324,-8.6481,-8.6541,-8.665,-8.6694,-8.6687,-8.6882,-8.6853,-8.6805,-8.6715,-8.689,-8.6964,-8.6994,-8.6603,-8.6601,-8.6599,-8.6597,0,0,-8.5936,-8.6052,-8.6088,-8.6139,-8.6232,-8.6322,-8.645,-8.6559,-8.6622,-8.6701,-8.6808,-8.6958,-8.6915,-8.6975,-8.6974,-8.7062,-8.724,-8.7003,-8.7005,-8.7046,-8.7459,-8.7495,-8.753,-8.722,-8.7225,-8.723,-8.7452,0,-8.6151,-8.6379,-8.6388,-8.6596,-8.6704,-8.6671,-8.6783,-8.6851,-8.6879,-8.6974,-8.7003,-8.711,-8.7044,-8.7081,-8.7166,-8.72,-8.7323,-8.7184,-8.7319,-8.7323,-8.7301,-8.7568,-8.7607,-8.7814,-8.7481,-8.7486,-8.7489,0,-8.6432,-8.6523,-8.6742,-8.682,-8.6866,-8.6967,-8.7067,-8.7158,-8.7234,-8.7248,-8.7317,-8.7303,-8.7432,-8.7338,-8.7516,-8.7422,-8.7477,-8.7502,-8.751,-8.7524,-8.7418,-8.759,-8.788,-8.7912,-8.7535,-8.7531,-8.7528,0,-8.6602,-8.6778,-8.6933,-8.6977,-8.7072,-8.7144,-8.7186,-8.7257,-8.7322,-8.7409,-8.7451,-8.7551,-8.7606,-8.7683,-8.7696,-8.7626,-8.7875,-8.7782,-8.789,-8.789,-8.7945,-8.7941,-8.8249,-8.7978,-8.7978,-8.7977,-8.7977,0,-8.6842,-8.6977,-8.7011,-8.7106,-8.7256,-8.7264,-8.7412,-8.7449,-8.7513,-8.7613,-8.7589,-8.7683,-8.7694,-8.7791,-8.7802,-8.7948,-8.7972,-8.7987,-8.7988,-8.799,-8.7988,-8.8027,-8.8013,-8.7986,-8.7984,-8.7982,-8.7981,0,-8.7058,-8.7086,-8.7252,-8.7329,-8.7351,-8.7459,-8.7524,-8.7614,-8.7639,-8.7767,-8.7797,-8.7836,-8.7949,-8.797,-8.8102,-8.8109,-8.8284,-8.827,-8.8259,-8.8258,-8.8365,-8.8356,-8.871,-8.8757,-8.8454,-8.8457,-8.846,0,-8.7209,-8.7313,-8.7402,-8.7469,-8.7516,-8.7623,-8.769,-8.7701,-8.7772,-8.7867,-8.7945,-8.8056,-8.8145,-8.8327,-8.8366,-8.8467,-8.8456,-8.8573,-8.847,-8.8469,-8.8459,-8.8453,-8.8464,-8.8593,-8.8596,-8.8599,-8.8601,0,-8.7476,-8.7485,-8.7584,-8.7688,-8.7769,-8.7851,-8.7928,-8.7983,-8.8005,-8.8085,-8.8201,-8.8271,-8.8407,-8.8517,-8.8618,-8.8659,-8.8634,-8.8633,-8.8663,-8.8667,-8.8657,-8.8665,-8.8314,-8.8625,-8.8622,-8.862,-8.8619,-8.8618,-8.7665,-8.7757,-8.7834,-8.7945,-8.8005,-8.8078,-8.8167,-8.8204,-8.8302,-8.8416,-8.8416,-8.8543,-8.8616,-8.8749,-8.8797,-8.8896,-8.8858,-8.8902,-8.8913,-8.8925,-8.8936,-8.864,-8.8914,-8.8913,-8.8912,-8.8912,-8.8911,0,-8.7932,-8.798,-8.8082,-8.8193,-8.828,-8.825,-8.8334,-8.8408,-8.8522,-8.8593,-8.8682,-8.8816,-8.8923,-8.897,-8.9075,-8.9145,-8.9136,-8.9172,-8.9167,-8.9178,-8.8962,-8.8926,-8.9178,-8.9178,-8.9178,-8.9177,-8.9177,-8.9177,-8.8081,-8.8234,-8.8252,-8.8435,-8.8481,-8.8608,-8.8659,-8.8726,-8.8783,-8.8935,-8.9024,-8.9055,-8.9117,-8.9226,-8.9322,-8.9333,-8.9373,-8.9415,-8.9421,-8.9219,-8.9192,-8.9167,-8.9133,-8.9423,-8.9424,-8.9628,-8.963,-8.9631]}]]